Tiempo cada hora Bartazek

Hoy, 6 Marzo, Sábado

Tiempo Temperatura Precipitaciones Viento Presión Humedad
00:00 -4°C° 0 mm 3 mps 758 mmHg 79%
01:00 -3°C° 0 mm 2 mps 758 mmHg 80%
02:00 -3°C° 0 mm 2 mps 758 mmHg 80%
03:00 -3°C° 0 mm 2 mps 758 mmHg 80%
04:00 -3°C° 0 mm 2 mps 758 mmHg 79%
05:00 -3°C° 0 mm 2 mps 758 mmHg 77%
06:00 -3°C° 0 mm 2 mps 758 mmHg 75%
07:00 -3°C° 0 mm 2 mps 759 mmHg 73%
08:00 -2°C° 0 mm 3 mps 759 mmHg 66%
09:00 -1°C° 0 mm 3 mps 759 mmHg 58%
10:00 +1°C° 0 mm 3 mps 759 mmHg 51%
11:00 0°C° 0 mm 4 mps 758 mmHg 49%
12:00 +1°C° 0 mm 4 mps 758 mmHg 47%
13:00 +2°C° 0 mm 5 mps 758 mmHg 44%
14:00 +1°C° 0 mm 5 mps 757 mmHg 46%
15:00 +1°C° 0 mm 5 mps 757 mmHg 48%
16:00 +1°C° 0 mm 5 mps 756 mmHg 50%
17:00 0°C° 0 mm 5 mps 756 mmHg 54%
18:00 -1°C° 0 mm 5 mps 755 mmHg 58%
19:00 -2°C° 0 mm 5 mps 754 mmHg 62%
20:00 -2°C° 0 mm 6 mps 754 mmHg 70%
21:00 -2°C° 0 mm 6 mps 753 mmHg 78%
22:00 -2°C° 0 mm 7 mps 753 mmHg 85%
23:00 -2°C° 0 mm 7 mps 752 mmHg 85%

Mañana, 7 Marzo, Domingo

Tiempo Temperatura Precipitaciones Viento Presión Humedad
00:00 -2°C° 0 mm 7 mps 752 mmHg 85%
01:00 -2°C° 0 mm 8 mps 751 mmHg 85%
02:00 -2°C° 0.1 mm 8 mps 751 mmHg 88%
03:00 -2°C° 0.1 mm 8 mps 750 mmHg 91%
04:00 -2°C° 0.1 mm 8 mps 749 mmHg 94%
05:00 -2°C° 0.4 mm 8 mps 749 mmHg 94%
06:00 -2°C° 0.4 mm 8 mps 749 mmHg 95%
07:00 -2°C° 0.4 mm 8 mps 749 mmHg 95%
08:00 -2°C° 0.4 mm 7 mps 749 mmHg 95%
09:00 -2°C° 0.4 mm 7 mps 749 mmHg 95%
10:00 -2°C° 0.4 mm 6 mps 749 mmHg 95%
11:00 -2°C° 0.6 mm 6 mps 749 mmHg 95%
12:00 -2°C° 0.6 mm 6 mps 749 mmHg 95%
13:00 -2°C° 0.6 mm 6 mps 748 mmHg 95%
14:00 -2°C° 0.5 mm 6 mps 748 mmHg 95%
15:00 -2°C° 0.5 mm 6 mps 748 mmHg 96%
16:00 -2°C° 0.5 mm 6 mps 748 mmHg 96%
17:00 -2°C° 0.8 mm 5 mps 748 mmHg 95%
18:00 -3°C° 0.8 mm 4 mps 748 mmHg 93%
19:00 -2°C° 0.8 mm 3 mps 748 mmHg 92%
20:00 -4°C° 0 mm 3 mps 748 mmHg 91%
21:00 -4°C° 0 mm 3 mps 748 mmHg 91%
22:00 -5°C° 0 mm 3 mps 748 mmHg 90%
23:00 -4°C° 0 mm 2 mps 748 mmHg 90%

Pasado mañana, 8 Marzo, Lunes

Tiempo Temperatura Precipitaciones Viento Presión Humedad
00:00 -4°C° 0 mm 2 mps 749 mmHg 89%
01:00 -4°C° 0 mm 2 mps 749 mmHg 89%
02:00 -5°C° 0 mm 2 mps 749 mmHg 89%
03:00 -5°C° 0 mm 2 mps 749 mmHg 88%
04:00 -5°C° 0 mm 2 mps 749 mmHg 88%
05:00 -4°C° 0.1 mm 2 mps 750 mmHg 88%
06:00 -5°C° 0.1 mm 3 mps 750 mmHg 87%
07:00 -4°C° 0.1 mm 3 mps 750 mmHg 87%
08:00 -4°C° 0.1 mm 4 mps 751 mmHg 82%
09:00 -3°C° 0.1 mm 4 mps 751 mmHg 77%
10:00 -2°C° 0.1 mm 5 mps 751 mmHg 72%
11:00 -2°C° 0.1 mm 5 mps 752 mmHg 69%
12:00 -1°C° 0.1 mm 5 mps 752 mmHg 67%
13:00 -1°C° 0.1 mm 5 mps 752 mmHg 65%
14:00 -1°C° 0.1 mm 5 mps 752 mmHg 65%
15:00 -2°C° 0.1 mm 5 mps 752 mmHg 66%
16:00 -2°C° 0.1 mm 5 mps 753 mmHg 67%
17:00 -3°C° 0 mm 4 mps 753 mmHg 72%
18:00 -4°C° 0 mm 4 mps 754 mmHg 77%
19:00 -5°C° 0 mm 3 mps 754 mmHg 82%
20:00 -5°C° 0 mm 3 mps 754 mmHg 83%
21:00 -5°C° 0 mm 2 mps 754 mmHg 83%
22:00 -5°C° 0 mm 2 mps 755 mmHg 84%
23:00 -5°C° 0 mm 2 mps 755 mmHg 84%

9 Marzo, Martes

Tiempo Temperatura Precipitaciones Viento Presión Humedad
00:00 -5°C° 0 mm 2 mps 755 mmHg 84%
01:00 -3°C° 0 mm 1 mps 755 mmHg 84%
02:00 -3°C° 0 mm 1 mps 755 mmHg 83%
03:00 -3°C° 0 mm 1 mps 755 mmHg 83%
04:00 -4°C° 0 mm 1 mps 755 mmHg 82%
05:00 -3°C° 0 mm 1 mps 755 mmHg 80%
06:00 -3°C° 0 mm 1 mps 756 mmHg 77%
07:00 -3°C° 0 mm 1 mps 756 mmHg 75%
08:00 -2°C° 0 mm 1 mps 756 mmHg 68%
09:00 -2°C° 0 mm 1 mps 756 mmHg 62%
10:00 -1°C° 0 mm 1 mps 756 mmHg 56%
11:00 -1°C° 0 mm 1 mps 756 mmHg 53%
12:00 -2°C° 0 mm 2 mps 756 mmHg 50%
13:00 -1°C° 0 mm 2 mps 756 mmHg 47%
14:00 -1°C° 0 mm 2 mps 756 mmHg 47%
15:00 -2°C° 0 mm 2 mps 755 mmHg 48%
16:00 -2°C° 0 mm 2 mps 755 mmHg 49%
17:00 -2°C° 0 mm 2 mps 755 mmHg 53%
18:00 -3°C° 0 mm 2 mps 755 mmHg 58%
19:00 -4°C° 0 mm 2 mps 755 mmHg 62%
20:00 -4°C° 0 mm 2 mps 755 mmHg 64%
21:00 -4°C° 0 mm 2 mps 755 mmHg 65%
22:00 -4°C° 0 mm 2 mps 755 mmHg 66%
23:00 -4°C° 0 mm 2 mps 755 mmHg 68%

10 Marzo, Miércoles

Tiempo Temperatura Precipitaciones Viento Presión Humedad
00:00 -5°C° 0 mm 2 mps 755 mmHg 69%
01:00 -5°C° 0 mm 2 mps 755 mmHg 71%
02:00 -5°C° 0 mm 2 mps 755 mmHg 71%
03:00 -5°C° 0 mm 2 mps 754 mmHg 72%
04:00 -5°C° 0 mm 2 mps 754 mmHg 73%
05:00 -5°C° 0 mm 2 mps 754 mmHg 73%
06:00 -5°C° 0 mm 2 mps 754 mmHg 72%
07:00 -5°C° 0 mm 2 mps 754 mmHg 72%
08:00 -3°C° 0 mm 2 mps 754 mmHg 68%
09:00 -2°C° 0 mm 2 mps 755 mmHg 63%
10:00 +1°C° 0 mm 2 mps 755 mmHg 58%
11:00 +1°C° 0 mm 2 mps 754 mmHg 56%
12:00 +1°C° 0 mm 3 mps 754 mmHg 53%
13:00 +2°C° 0 mm 3 mps 754 mmHg 50%
14:00 +1°C° 0 mm 3 mps 753 mmHg 51%
15:00 +2°C° 0 mm 2 mps 753 mmHg 53%
16:00 +2°C° 0 mm 2 mps 753 mmHg 54%
17:00 +1°C° 0 mm 2 mps 752 mmHg 59%
18:00 -1°C° 0 mm 2 mps 752 mmHg 63%
19:00 -2°C° 0 mm 2 mps 752 mmHg 68%
20:00 -2°C° 0 mm 3 mps 751 mmHg 69%
21:00 -2°C° 0 mm 3 mps 751 mmHg 71%
22:00 -2°C° 0 mm 4 mps 751 mmHg 72%
23:00 -2°C° 0 mm 4 mps 750 mmHg 78%

11 Marzo, Jueves

Tiempo Temperatura Precipitaciones Viento Presión Humedad
00:00 -2°C° 0 mm 4 mps 749 mmHg 84%
01:00 -2°C° 0 mm 5 mps 748 mmHg 89%
02:00 -2°C° 0 mm 5 mps 748 mmHg 89%
03:00 -1°C° 0 mm 5 mps 747 mmHg 89%
04:00 -1°C° 0 mm 5 mps 746 mmHg 89%
05:00 -2°C° 0 mm 6 mps 745 mmHg 91%
06:00 -2°C° 0 mm 6 mps 744 mmHg 93%
07:00 -2°C° 0 mm 6 mps 743 mmHg 96%
08:00 -1°C° 0.4 mm 7 mps 743 mmHg 95%
09:00 -1°C° 0.4 mm 7 mps 742 mmHg 93%
10:00 0°C° 0.4 mm 7 mps 741 mmHg 92%
11:00 0°C° 0.4 mm 7 mps 740 mmHg 92%
12:00 +2°C° 0.4 mm 7 mps 739 mmHg 93%
13:00 +2°C° 0.4 mm 7 mps 739 mmHg 93%
14:00 +3°C° 0.2 mm 7 mps 738 mmHg 92%
15:00 +3°C° 0.2 mm 7 mps 737 mmHg 91%
16:00 +4°C° 0.2 mm 7 mps 736 mmHg 90%
17:00 +5°C° 0.1 mm 7 mps 735 mmHg 88%
18:00 +5°C° 0.1 mm 8 mps 735 mmHg 86%
19:00 +5°C° 0.1 mm 8 mps 734 mmHg 83%
20:00 +5°C° 0.2 mm 8 mps 735 mmHg 81%
21:00 +4°C° 0.2 mm 8 mps 735 mmHg 79%
22:00 +3°C° 0.2 mm 7 mps 736 mmHg 77%
23:00 +3°C° 0 mm 7 mps 736 mmHg 79%
Mostrar más

Necesitamos Su Consentimiento

Meteoprog y nuestros Proveedores de Servicios pueden almacenar y acceder a sus datos personales como cookies, identificadores de dispositivo u otras tecnologías similares de su dispositivo y procesar dichos datos para personalizar contenido y anuncios, además de ofrecer funciones de redes sociales y analizar el tráfico.

  • Almacenar y/o acceder a información en su dispositivo

    Se puede almacenar o acceder a cookies, identificadores de dispositivo u otra información de su dispositivo para los fines anteriormente indicados.

  • Anuncios y contenido personalizados, medición de anuncios y contenido, percepciones del público, y desarrollo de productos

    Los anuncios y el contenido pueden personalizarse en base a su perfil. Se pueden añadir más datos para personalizar mejor los anuncios y contenidos. Se puede medir el rendimiento de los anuncios y contenidos. Se puede obtener la percepción sobre el público que ha visto los anuncios y contenidos. Dichos datos pueden usarse para desarrollar o mejorar la experiencia del usuario, sistemas y software.

Al hacer clic en ‘Estoy De Acuerdo’ usted permitirá el uso de las cookies, identificadores de dispositivo, balizas web u otras tecnologías similares indicadas. Su configuración puede cambiarse desde el navegador de su dispositivo.

Para ciertos fines, los intereses legítimos pueden ser considerados por encima del consentimiento. Puede leer más sobre ello en nuestra Política de Privacidad y Cookies.